Flag for U.S.A. Weather past 2 weeks in Flagstaff, Arizona, U.S.A.

Now
40 °F

Light rain. Mostly cloudy.


Feels Like: 40 °F
Forecast: 35 / 41 °F
Wind: No wind

Location: Flagstaff Pulliam Airport

Current Time: Jan 29, 2015 at 7:41:37 PM

Latest Report: Jan 29, 2015 at 6:57 PM


Visibility: 7 mi

Pressure: 30.13 "Hg

Humidity: 89%

Dew point: 37 °F

Location of FlagstaffLocation

Historic Weather in Flagstaff — Graph

°F

Flagstaff temperature yesterday

Maximum temperature yesterday: 55 °F (at 2:57 PM)
Minimum temperature yesterday: 22 °F (at 6:57 AM)
Average temperature yesterday: 37 °F

Past Weeks' High & Low Weather Summary

 TemperatureHumidityPressure
High60 °F (Jan 18, 1:57 PM)97% (Jan 27, 6:57 AM)30.42 "Hg (Jan 27, 6:57 AM)
Low12 °F (Jan 23, 3:57 AM)18% (Jan 16, 2:57 PM)29.87 "Hg (Jan 21, 3:57 AM)
Average36 °F58%30.22 "Hg
* Reported Jan 14 5:57 PM — Jan 29 5:57 PM, Flagstaff, Weather by CustomWeather, © 2014

Note: Actual official high and low records may vary slightly from our data, if they occured in-between our weather recording intervals... More about our weather records

Advertising

Flagstaff weather history for previous 24 hours

 ConditionsComfort  
Time TempWeatherWind HumidityBarometerVisibility
5:57 PM
Jan 29
41 °FLight rain. Overcast.5 mph86%30.13 "Hg10 mi
4:57 PM42 °FLight rain. Mostly cloudy.No wind82%30.14 "Hg10 mi
3:57 PM45 °FLight rain. Mostly cloudy.5 mph63%30.12 "Hg10 mi
2:57 PM49 °FOvercast.8 mph50%30.07 "Hg10 mi
1:57 PM49 °FPassing clouds.7 mph48%30.10 "Hg10 mi
12:57 PM47 °FOvercast.8 mph52%30.14 "Hg10 mi
11:57 AM47 °FBroken clouds.10 mph52%30.18 "Hg10 mi
10:57 AM44 °FScattered clouds.10 mph58%30.22 "Hg10 mi
9:57 AM42 °FOvercast.12 mph57%30.21 "Hg10 mi
8:57 AM40 °FOvercast.8 mph63%30.21 "Hg10 mi
7:57 AM38 °FOvercast.6 mph65%30.20 "Hg10 mi
6:57 AM37 °FOvercast.3 mph67%30.18 "Hg10 mi
5:57 AM34 °FOvercast.5 mph76%30.16 "Hg10 mi
4:57 AM32 °FPassing clouds.No wind79%30.16 "Hg10 mi
3:57 AM32 °FClear.No wind79%30.14 "Hg10 mi
2:57 AM37 °FPassing clouds.6 mph67%30.12 "Hg10 mi
1:57 AM36 °FClear.3 mph73%30.14 "Hg10 mi
12:57 AM34 °FClear.No wind79%30.16 "Hg10 mi
11:57 PM
Jan 28
34 °FPassing clouds.No wind79%30.18 "Hg10 mi
10:57 PM35 °FPassing clouds.No wind75%30.19 "Hg10 mi
9:57 PM37 °FPassing clouds.No wind73%30.22 "Hg10 mi
8:57 PM37 °FPassing clouds.No wind73%30.24 "Hg10 mi
7:57 PM38 °FClear.No wind70%30.27 "Hg10 mi
Weather by CustomWeather, © 2014

See weather overviewHow to use our weather pages